Time,TemperatureF,DewpointF,PressureIn,WindDirection,WindDirectionDegrees,WindSpeedMPH,WindSpeedGustMPH,Humidity,HourlyPrecipIn,Conditions,Clouds,dailyrainin,SoftwareType,DateUTC
2013-03-12 00:00:00,42.4,39.7,30.10,SE,139,3.0,7.0,90,0.00,,,0.00,WeatherCatV1.10B1784,2013-03-12 04:00:00,
2013-03-12 00:01:00,42.4,39.7,30.10,SW,233,3.0,7.0,90,0.00,,,0.00,WeatherCatV1.10B1784,2013-03-12 04:01:00,
2013-03-12 00:06:00,42.4,40.0,30.10,SE,143,0.0,4.0,91,0.00,,,0.00,WeatherCatV1.10B1784,2013-03-12 04:06:00,
2013-03-12 00:11:00,42.4,40.0,30.10,WSW,248,0.0,4.0,91,0.00,,,0.00,WeatherCatV1.10B1784,2013-03-12 04:11:00,
2013-03-12 00:16:00,42.3,39.9,30.09,SSE,153,0.0,3.0,91,0.00,,,0.00,WeatherCatV1.10B1784,2013-03-12 04:16:00,
2013-03-12 00:21:00,42.3,39.9,30.09,SSE,159,4.0,6.0,91,0.00,,,0.00,WeatherCatV1.10B1784,2013-03-12 04:21:00,
2013-03-12 00:26:00,42.2,39.8,30.09,SSE,168,1.0,2.0,91,0.00,,,0.00,WeatherCatV1.10B1784,2013-03-12 04:26:00,
2013-03-12 00:31:00,42.2,39.8,30.09,SSW,210,3.0,3.0,91,0.00,,,0.00,WeatherCatV1.10B1784,2013-03-12 04:31:00,
2013-03-12 00:36:00,42.3,40.1,30.10,WSW,238,0.0,2.0,92,0.00,,,0.00,WeatherCatV1.10B1784,2013-03-12 04:36:00,
2013-03-12 00:41:00,42.4,40.0,30.10,SSE,165,1.0,4.0,91,0.00,,,0.00,WeatherCatV1.10B1784,2013-03-12 04:41:00,
2013-03-12 00:46:00,42.4,40.0,30.09,SSE,167,2.0,4.0,91,0.00,,,0.00,WeatherCatV1.10B1784,2013-03-12 04:46:00,
2013-03-12 00:51:00,42.4,40.2,30.09,SSE,161,1.0,8.0,92,0.00,,,0.00,WeatherCatV1.10B1784,2013-03-12 04:51:00,
2013-03-12 00:56:00,42.5,40.3,30.09,SSE,164,3.0,11.0,92,0.00,,,0.00,WeatherCatV1.10B1784,2013-03-12 04:56:00,
2013-03-12 01:01:00,42.6,40.2,30.09,South,176,1.0,8.0,91,0.00,,,0.00,WeatherCatV1.10B1784,2013-03-12 05:01:00,
2013-03-12 01:06:00,42.6,40.2,30.09,SE,144,1.0,7.0,91,0.00,,,0.00,WeatherCatV1.10B1784,2013-03-12 05:06:00,
2013-03-12 01:11:00,42.7,40.5,30.08,SW,218,0.0,3.0,92,0.00,,,0.00,WeatherCatV1.10B1784,2013-03-12 05:11:00,
2013-03-12 01:16:00,42.9,40.7,30.08,SSE,154,4.0,12.0,92,0.00,,,0.00,WeatherCatV1.10B1784,2013-03-12 05:16:00,
2013-03-12 01:21:00,43.0,40.6,30.09,South,185,3.0,5.0,91,0.00,,,0.00,WeatherCatV1.10B1784,2013-03-12 05:21:00,
2013-03-12 01:26:00,43.0,40.6,30.09,SSE,161,7.0,10.0,91,0.00,,,0.00,WeatherCatV1.10B1784,2013-03-12 05:26:00,
2013-03-12 01:31:00,43.1,40.9,30.08,SSE,163,1.0,7.0,92,0.00,,,0.00,WeatherCatV1.10B1784,2013-03-12 05:31:00,
2013-03-12 01:36:00,43.2,40.8,30.08,SSW,206,0.0,5.0,91,0.00,,,0.00,WeatherCatV1.10B1784,2013-03-12 05:36:00,
2013-03-12 01:41:00,43.0,40.6,30.09,SSE,156,4.0,4.0,91,0.00,,,0.00,WeatherCatV1.10B1784,2013-03-12 05:41:00,
2013-03-12 01:46:00,43.1,40.9,30.09,SW,227,3.0,8.0,92,0.00,,,0.00,WeatherCatV1.10B1784,2013-03-12 05:46:00,
2013-03-12 01:51:00,43.2,41.0,30.08,SE,138,10.0,11.0,92,0.00,,,0.00,WeatherCatV1.10B1784,2013-03-12 05:51:00,
2013-03-12 01:56:00,43.2,41.0,30.08,South,177,0.0,4.0,92,0.00,,,0.00,WeatherCatV1.10B1784,2013-03-12 05:56:00,
2013-03-12 02:01:00,43.1,40.9,30.08,SSE,153,0.0,8.0,92,0.00,,,0.00,WeatherCatV1.10B1784,2013-03-12 06:01:00,
2013-03-12 02:06:00,43.1,40.9,30.07,SSE,150,3.0,8.0,92,0.00,,,0.00,WeatherCatV1.10B1784,2013-03-12 06:06:00,
2013-03-12 02:11:00,43.1,40.9,30.07,SSE,165,4.0,7.0,92,0.00,,,0.00,WeatherCatV1.10B1784,2013-03-12 06:11:00,
2013-03-12 02:16:00,43.2,41.0,30.07,SSE,163,4.0,9.0,92,0.00,,,0.00,WeatherCatV1.10B1784,2013-03-12 06:16:00,
2013-03-12 02:21:00,43.3,41.1,30.07,SE,129,10.0,10.0,92,0.00,,,0.00,WeatherCatV1.10B1784,2013-03-12 06:21:00,
2013-03-12 02:26:00,43.5,41.6,30.07,SSW,211,2.0,3.0,93,0.00,,,0.00,WeatherCatV1.10B1784,2013-03-12 06:26:00,
2013-03-12 02:31:00,43.4,41.2,30.07,South,179,8.0,8.0,92,0.00,,,0.00,WeatherCatV1.10B1784,2013-03-12 06:31:00,
2013-03-12 02:36:00,43.4,41.5,30.07,South,177,1.0,6.0,93,0.00,,,0.00,WeatherCatV1.10B1784,2013-03-12 06:36:00,
2013-03-12 02:41:00,43.3,41.4,30.06,SSE,158,8.0,11.0,93,0.00,,,0.00,WeatherCatV1.10B1784,2013-03-12 06:41:00,
2013-03-12 02:46:00,43.3,41.4,30.05,SE,144,5.0,7.0,93,0.00,,,0.00,WeatherCatV1.10B1784,2013-03-12 06:46:00,
2013-03-12 02:51:00,43.2,41.3,30.05,SSE,159,6.0,8.0,93,0.00,,,0.00,WeatherCatV1.10B1784,2013-03-12 06:51:00,
2013-03-12 02:56:00,43.2,41.6,30.05,SE,137,3.0,4.0,94,0.00,,,0.00,WeatherCatV1.10B1784,2013-03-12 06:56:00,
2013-03-12 03:01:00,43.2,41.6,30.04,SSE,148,7.0,7.0,94,0.00,,,0.00,WeatherCatV1.10B1784,2013-03-12 07:01:00,
2013-03-12 03:06:00,43.2,41.6,30.04,SSE,154,5.0,11.0,94,0.00,,,0.00,WeatherCatV1.10B1784,2013-03-12 07:06:00,
2013-03-12 03:11:00,43.3,41.7,30.04,SE,138,3.0,9.0,94,0.00,,,0.00,WeatherCatV1.10B1784,2013-03-12 07:11:00,
2013-03-12 03:16:00,43.4,41.8,30.04,SSE,157,4.0,6.0,94,0.00,,,0.00,WeatherCatV1.10B1784,2013-03-12 07:16:00,
2013-03-12 03:21:00,43.4,41.8,30.04,West,262,1.0,4.0,94,0.00,,,0.00,WeatherCatV1.10B1784,2013-03-12 07:21:00,
2013-03-12 03:26:00,43.5,41.9,30.03,ESE,113,4.0,6.0,94,0.00,,,0.00,WeatherCatV1.10B1784,2013-03-12 07:26:00,
2013-03-12 03:31:00,43.6,42.0,30.03,South,175,0.0,5.0,94,0.00,,,0.00,WeatherCatV1.10B1784,2013-03-12 07:31:00,
2013-03-12 03:36:00,43.5,41.9,30.03,SSE,159,3.0,7.0,94,0.00,,,0.00,WeatherCatV1.10B1784,2013-03-12 07:36:00,
2013-03-12 03:41:00,43.5,41.9,30.03,SSE,159,0.0,3.0,94,0.00,,,0.00,WeatherCatV1.10B1784,2013-03-12 07:41:00,
2013-03-12 03:46:00,43.4,41.8,30.03,South,174,0.0,3.0,94,0.00,,,0.00,WeatherCatV1.10B1784,2013-03-12 07:46:00,
2013-03-12 03:51:00,43.5,41.9,30.03,SSE,158,1.0,5.0,94,0.00,,,0.00,WeatherCatV1.10B1784,2013-03-12 07:51:00,
2013-03-12 03:56:00,43.4,41.8,30.03,SSE,165,5.0,5.0,94,0.00,,,0.00,WeatherCatV1.10B1784,2013-03-12 07:56:00,
2013-03-12 04:01:00,43.3,41.7,30.02,SSE,155,3.0,5.0,94,0.00,,,0.00,WeatherCatV1.10B1784,2013-03-12 08:01:00,
2013-03-12 04:06:00,43.4,41.8,30.03,SSW,204,0.0,3.0,94,0.00,,,0.00,WeatherCatV1.10B1784,2013-03-12 08:06:00,
2013-03-12 04:11:00,43.4,41.8,30.02,SSW,198,2.0,2.0,94,0.00,,,0.00,WeatherCatV1.10B1784,2013-03-12 08:11:00,
2013-03-12 04:16:00,43.4,41.8,30.02,SSW,196,0.0,0.0,94,0.00,,,0.00,WeatherCatV1.10B1784,2013-03-12 08:16:00,
2013-03-12 04:21:00,43.4,41.8,30.02,SSW,196,0.0,1.0,94,0.00,,,0.00,WeatherCatV1.10B1784,2013-03-12 08:21:00,
2013-03-12 04:26:00,43.3,41.7,30.01,SSW,196,0.0,1.0,94,0.00,,,0.00,WeatherCatV1.10B1784,2013-03-12 08:26:00,
2013-03-12 04:31:00,43.1,41.5,30.02,SSW,196,0.0,2.0,94,0.00,,,0.00,WeatherCatV1.10B1784,2013-03-12 08:31:00,
2013-03-12 04:36:00,43.1,41.5,30.02,SSW,196,0.0,0.0,94,0.00,,,0.00,WeatherCatV1.10B1784,2013-03-12 08:36:00,
2013-03-12 04:41:00,42.8,41.2,30.02,SSW,196,0.0,0.0,94,0.00,,,0.00,WeatherCatV1.10B1784,2013-03-12 08:41:00,
2013-03-12 04:46:00,42.6,41.0,30.02,SSW,196,0.0,2.0,94,0.00,,,0.00,WeatherCatV1.10B1784,2013-03-12 08:46:00,
2013-03-12 04:51:00,42.4,40.8,30.02,SSW,196,0.0,0.0,94,0.00,,,0.00,WeatherCatV1.10B1784,2013-03-12 08:51:00,
2013-03-12 04:56:00,42.3,40.7,30.02,SSW,196,0.0,0.0,94,0.00,,,0.00,WeatherCatV1.10B1784,2013-03-12 08:56:00,
2013-03-12 05:01:00,42.3,40.7,30.02,SSW,196,0.0,0.0,94,0.00,,,0.00,WeatherCatV1.10B1784,2013-03-12 09:01:00,
2013-03-12 05:06:00,42.2,40.6,30.02,SSW,196,0.0,0.0,94,0.00,,,0.00,WeatherCatV1.10B1784,2013-03-12 09:06:00,
2013-03-12 05:11:00,42.3,40.7,30.02,SSW,196,0.0,0.0,94,0.00,,,0.00,WeatherCatV1.10B1784,2013-03-12 09:11:00,
2013-03-12 05:16:00,42.3,40.7,30.02,SSW,196,0.0,0.0,94,0.00,,,0.00,WeatherCatV1.10B1784,2013-03-12 09:16:00,
2013-03-12 05:21:00,42.2,40.6,30.03,SSW,196,0.0,0.0,94,0.00,,,0.00,WeatherCatV1.10B1784,2013-03-12 09:21:00,
2013-03-12 05:26:00,42.0,40.4,30.03,SSW,196,0.0,0.0,94,0.00,,,0.00,WeatherCatV1.10B1784,2013-03-12 09:26:00,
2013-03-12 05:31:00,41.9,40.3,30.02,SSW,196,2.0,4.0,94,0.00,,,0.00,WeatherCatV1.10B1784,2013-03-12 09:31:00,
2013-03-12 05:36:00,41.9,40.3,30.02,SSW,196,0.0,0.0,94,0.00,,,0.00,WeatherCatV1.10B1784,2013-03-12 09:36:00,
2013-03-12 05:41:00,41.8,40.2,30.02,South,184,0.0,1.0,94,0.00,,,0.00,WeatherCatV1.10B1784,2013-03-12 09:41:00,
2013-03-12 05:46:00,41.8,40.5,30.02,South,184,0.0,0.0,95,0.00,,,0.00,WeatherCatV1.10B1784,2013-03-12 09:46:00,
2013-03-12 05:51:00,41.7,40.1,30.02,South,184,0.0,0.0,94,0.00,,,0.00,WeatherCatV1.10B1784,2013-03-12 09:51:00,
2013-03-12 05:56:00,41.6,40.0,30.02,South,184,0.0,0.0,94,0.00,,,0.00,WeatherCatV1.10B1784,2013-03-12 09:56:00,
2013-03-12 06:01:00,41.6,40.0,30.02,South,184,0.0,0.0,94,0.00,,,0.00,WeatherCatV1.10B1784,2013-03-12 10:01:00,
2013-03-12 06:06:00,41.7,40.1,30.02,South,184,0.0,0.0,94,0.00,,,0.00,WeatherCatV1.10B1784,2013-03-12 10:06:00,
2013-03-12 06:11:00,41.7,40.4,30.02,South,184,0.0,2.0,95,0.00,,,0.00,WeatherCatV1.10B1784,2013-03-12 10:11:00,
2013-03-12 06:16:00,41.7,40.4,30.02,South,184,0.0,2.0,95,0.00,,,0.00,WeatherCatV1.10B1784,2013-03-12 10:16:00,
2013-03-12 06:21:00,41.7,40.4,30.01,South,184,0.0,0.0,95,0.00,,,0.00,WeatherCatV1.10B1784,2013-03-12 10:21:00,
2013-03-12 06:26:00,41.8,40.5,30.01,South,184,0.0,0.0,95,0.00,,,0.00,WeatherCatV1.10B1784,2013-03-12 10:26:00,
2013-03-12 06:31:00,41.6,40.3,30.01,South,184,0.0,0.0,95,0.00,,,0.00,WeatherCatV1.10B1784,2013-03-12 10:31:00,
2013-03-12 06:36:00,41.5,40.2,30.01,South,184,0.0,0.0,95,0.00,,,0.00,WeatherCatV1.10B1784,2013-03-12 10:36:00,
2013-03-12 06:41:00,41.6,40.3,30.01,South,184,0.0,2.0,95,0.00,,,0.00,WeatherCatV1.10B1784,2013-03-12 10:41:00,
2013-03-12 06:46:00,41.5,40.2,30.01,South,184,1.0,3.0,95,0.00,,,0.00,WeatherCatV1.10B1784,2013-03-12 10:46:00,
2013-03-12 06:51:00,41.5,40.2,30.00,South,184,0.0,4.0,95,0.00,,,0.00,WeatherCatV1.10B1784,2013-03-12 10:51:00,
2013-03-12 06:56:00,41.6,40.3,30.00,SSE,160,3.0,7.0,95,0.00,,,0.00,WeatherCatV1.10B1784,2013-03-12 10:56:00,
2013-03-12 07:01:00,41.7,40.4,30.00,SE,144,0.0,2.0,95,0.00,,,0.00,WeatherCatV1.10B1784,2013-03-12 11:01:00,
2013-03-12 07:06:00,41.7,40.4,30.00,SE,144,1.0,4.0,95,0.00,,,0.00,WeatherCatV1.10B1784,2013-03-12 11:06:00,
2013-03-12 07:11:00,41.8,40.5,30.00,SE,144,0.0,0.0,95,0.00,,,0.00,WeatherCatV1.10B1784,2013-03-12 11:11:00,
2013-03-12 07:16:00,41.8,40.5,30.00,SE,144,0.0,2.0,95,0.00,,,0.00,WeatherCatV1.10B1784,2013-03-12 11:16:00,
2013-03-12 07:21:00,41.9,40.6,30.00,SE,144,1.0,2.0,95,0.00,,,0.00,WeatherCatV1.10B1784,2013-03-12 11:21:00,
2013-03-12 07:26:00,42.0,40.7,29.99,SSE,151,0.0,2.0,95,0.00,,,0.00,WeatherCatV1.10B1784,2013-03-12 11:26:00,
2013-03-12 07:31:00,42.1,40.8,29.99,SSE,151,2.0,4.0,95,0.00,,,0.00,WeatherCatV1.10B1784,2013-03-12 11:31:00,
2013-03-12 07:36:00,42.3,41.0,30.00,SSE,150,0.0,0.0,95,0.00,,,0.00,WeatherCatV1.10B1784,2013-03-12 11:36:00,
2013-03-12 07:41:00,42.3,41.0,29.99,SSE,150,0.0,0.0,95,0.00,,,0.00,WeatherCatV1.10B1784,2013-03-12 11:41:00,
2013-03-12 07:46:00,42.3,41.0,29.99,SSE,150,0.0,0.0,95,0.00,,,0.00,WeatherCatV1.10B1784,2013-03-12 11:46:00,
2013-03-12 07:51:00,42.4,41.1,29.99,SSE,150,0.0,3.0,95,0.00,,,0.00,WeatherCatV1.10B1784,2013-03-12 11:51:00,
2013-03-12 07:56:00,42.5,41.2,30.00,SSE,150,0.0,0.0,95,0.00,,,0.00,WeatherCatV1.10B1784,2013-03-12 11:56:00,
2013-03-12 08:01:00,42.5,41.2,30.00,SSE,150,0.0,0.0,95,0.00,,,0.00,WeatherCatV1.10B1784,2013-03-12 12:01:00,
2013-03-12 08:06:00,42.6,41.3,30.00,SSE,150,0.0,0.0,95,0.00,,,0.00,WeatherCatV1.10B1784,2013-03-12 12:06:00,
2013-03-12 08:11:00,42.7,41.4,29.99,SSE,150,0.0,0.0,95,0.00,,,0.00,WeatherCatV1.10B1784,2013-03-12 12:11:00,
2013-03-12 08:16:00,42.8,41.5,30.00,SSE,150,0.0,0.0,95,0.00,,,0.00,WeatherCatV1.10B1784,2013-03-12 12:16:00,
2013-03-12 08:21:00,43.0,41.7,29.99,SSE,150,0.0,0.0,95,0.00,,,0.00,WeatherCatV1.10B1784,2013-03-12 12:21:00,
2013-03-12 08:26:00,43.2,41.9,29.99,SSE,150,0.0,1.0,95,0.00,,,0.00,WeatherCatV1.10B1784,2013-03-12 12:26:00,
2013-03-12 08:31:00,43.2,41.9,29.99,SSE,150,0.0,0.0,95,0.00,,,0.00,WeatherCatV1.10B1784,2013-03-12 12:31:00,
2013-03-12 08:36:00,43.4,42.1,29.99,SSE,150,0.0,0.0,95,0.00,,,0.00,WeatherCatV1.10B1784,2013-03-12 12:36:00,
2013-03-12 08:41:00,43.5,42.4,29.99,SSE,150,0.0,1.0,96,0.00,,,0.00,WeatherCatV1.10B1784,2013-03-12 12:41:00,
2013-03-12 08:46:00,43.7,42.6,29.99,SSE,150,0.0,4.0,96,0.00,,,0.00,WeatherCatV1.10B1784,2013-03-12 12:46:00,
2013-03-12 08:51:00,43.6,42.5,29.99,SSE,150,0.0,1.0,96,0.00,,,0.00,WeatherCatV1.10B1784,2013-03-12 12:51:00,
2013-03-12 08:56:00,43.5,42.4,29.99,SSE,150,0.0,0.0,96,0.00,,,0.00,WeatherCatV1.10B1784,2013-03-12 12:56:00,
2013-03-12 09:01:00,43.5,42.2,29.99,SSE,150,0.0,0.0,95,0.00,,,0.00,WeatherCatV1.10B1784,2013-03-12 13:01:00,
2013-03-12 09:06:00,43.6,42.5,29.99,SSE,150,0.0,0.0,96,0.00,,,0.00,WeatherCatV1.10B1784,2013-03-12 13:06:00,
2013-03-12 09:11:00,43.7,42.6,29.99,SSE,150,0.0,0.0,96,0.00,,,0.00,WeatherCatV1.10B1784,2013-03-12 13:11:00,
2013-03-12 09:16:00,43.7,42.6,29.99,SSE,150,0.0,0.0,96,0.00,,,0.00,WeatherCatV1.10B1784,2013-03-12 13:16:00,
2013-03-12 09:21:00,43.8,42.5,29.99,SSE,150,0.0,0.0,95,0.00,,,0.00,WeatherCatV1.10B1784,2013-03-12 13:21:00,
2013-03-12 09:26:00,44.0,42.7,29.99,SSE,150,0.0,3.0,95,0.00,,,0.00,WeatherCatV1.10B1784,2013-03-12 13:26:00,
2013-03-12 09:31:00,44.2,43.1,29.99,SSE,150,0.0,0.0,96,0.00,,,0.00,WeatherCatV1.10B1784,2013-03-12 13:31:00,
2013-03-12 09:36:00,44.5,43.4,29.99,SSE,150,0.0,1.0,96,0.00,,,0.00,WeatherCatV1.10B1784,2013-03-12 13:36:00,
2013-03-12 09:41:00,44.8,43.7,29.99,SSE,150,0.0,0.0,96,0.00,,,0.00,WeatherCatV1.10B1784,2013-03-12 13:41:00,
2013-03-12 09:46:00,44.9,43.8,29.99,SSE,150,0.0,0.0,96,0.00,,,0.00,WeatherCatV1.10B1784,2013-03-12 13:46:00,
2013-03-12 09:51:00,44.9,43.8,29.99,SSE,150,0.0,2.0,96,0.00,,,0.00,WeatherCatV1.10B1784,2013-03-12 13:51:00,
2013-03-12 09:56:00,45.2,44.1,29.99,SSE,150,0.0,4.0,96,0.00,,,0.00,WeatherCatV1.10B1784,2013-03-12 13:56:00,
2013-03-12 10:01:00,45.5,44.4,29.98,SSE,150,0.0,0.0,96,0.00,,,0.00,WeatherCatV1.10B1784,2013-03-12 14:01:00,
2013-03-12 10:06:00,45.7,44.6,29.98,SSE,150,0.0,0.0,96,0.00,,,0.00,WeatherCatV1.10B1784,2013-03-12 14:06:00,
2013-03-12 10:11:00,46.1,45.0,29.98,SSE,150,0.0,0.0,96,0.00,,,0.00,WeatherCatV1.10B1784,2013-03-12 14:11:00,
2013-03-12 10:16:00,46.3,45.2,29.98,SSE,150,0.0,1.0,96,0.00,,,0.00,WeatherCatV1.10B1784,2013-03-12 14:16:00,
2013-03-12 10:21:00,46.3,45.2,29.98,SSE,150,0.0,1.0,96,0.00,,,0.00,WeatherCatV1.10B1784,2013-03-12 14:21:00,
2013-03-12 10:26:00,46.3,45.2,29.97,SSE,150,0.0,0.0,96,0.00,,,0.00,WeatherCatV1.10B1784,2013-03-12 14:26:00,
2013-03-12 10:31:00,46.5,45.1,29.97,SSE,150,0.0,0.0,95,0.00,,,0.00,WeatherCatV1.10B1784,2013-03-12 14:31:00,
2013-03-12 10:36:00,46.6,45.2,29.97,SSE,150,0.0,0.0,95,0.00,,,0.00,WeatherCatV1.10B1784,2013-03-12 14:36:00,
2013-03-12 10:41:00,46.7,45.3,29.97,SSE,150,0.0,0.0,95,0.00,,,0.00,WeatherCatV1.10B1784,2013-03-12 14:41:00,
2013-03-12 10:46:00,46.7,45.3,29.97,SSE,150,0.0,0.0,95,0.00,,,0.00,WeatherCatV1.10B1784,2013-03-12 14:46:00,
2013-03-12 10:51:00,46.7,45.1,29.96,SSE,150,0.0,0.0,94,0.00,,,0.00,WeatherCatV1.10B1784,2013-03-12 14:51:00,
2013-03-12 10:56:00,46.9,45.3,29.96,SSE,150,0.0,0.0,94,0.00,,,0.00,WeatherCatV1.10B1784,2013-03-12 14:56:00,
2013-03-12 11:01:00,46.9,45.0,29.96,SSE,150,0.0,0.0,93,0.00,,,0.00,WeatherCatV1.10B1784,2013-03-12 15:01:00,
2013-03-12 11:06:00,46.9,44.7,29.96,SSE,150,0.0,0.0,92,0.00,,,0.00,WeatherCatV1.10B1784,2013-03-12 15:06:00,
2013-03-12 11:11:00,47.0,44.8,29.96,SSE,150,0.0,0.0,92,0.00,,,0.00,WeatherCatV1.10B1784,2013-03-12 15:11:00,
2013-03-12 11:16:00,47.3,45.1,29.96,SSE,150,0.0,0.0,92,0.00,,,0.00,WeatherCatV1.10B1784,2013-03-12 15:16:00,
2013-03-12 11:21:00,47.5,45.3,29.96,SSE,150,0.0,0.0,92,0.00,,,0.00,WeatherCatV1.10B1784,2013-03-12 15:21:00,
2013-03-12 11:26:00,47.6,45.1,29.95,SSE,150,0.0,0.0,91,0.00,,,0.00,WeatherCatV1.10B1784,2013-03-12 15:26:00,
2013-03-12 11:31:00,47.7,45.2,29.95,SSE,150,0.0,0.0,91,0.00,,,0.00,WeatherCatV1.10B1784,2013-03-12 15:31:00,
2013-03-12 11:36:00,47.7,44.9,29.95,SSE,150,0.0,0.0,90,0.00,,,0.00,WeatherCatV1.10B1784,2013-03-12 15:36:00,
2013-03-12 11:41:00,47.8,45.0,29.94,SSE,150,0.0,0.0,90,0.00,,,0.00,WeatherCatV1.10B1784,2013-03-12 15:41:00,
2013-03-12 11:46:00,48.0,45.5,29.94,SSE,150,0.0,0.0,91,0.00,,,0.00,WeatherCatV1.10B1784,2013-03-12 15:46:00,
2013-03-12 11:51:00,48.2,45.4,29.94,SSE,150,0.0,0.0,90,0.00,,,0.00,WeatherCatV1.10B1784,2013-03-12 15:51:00,
2013-03-12 11:56:00,48.6,46.1,29.94,SE,136,1.0,3.0,91,0.00,,,0.00,WeatherCatV1.10B1784,2013-03-12 15:56:00,
2013-03-12 12:01:00,49.0,46.2,29.93,SE,136,0.0,0.0,90,0.00,,,0.00,WeatherCatV1.10B1784,2013-03-12 16:01:00,
2013-03-12 12:06:00,49.4,46.3,29.93,SE,136,4.0,6.0,89,0.00,,,0.00,WeatherCatV1.10B1784,2013-03-12 16:06:00,
2013-03-12 12:11:00,49.8,46.7,29.93,SE,140,0.0,4.0,89,0.00,,,0.00,WeatherCatV1.10B1784,2013-03-12 16:11:00,
2013-03-12 12:16:00,50.3,47.2,29.93,SE,142,1.0,4.0,89,0.00,,,0.00,WeatherCatV1.10B1784,2013-03-12 16:16:00,
2013-03-12 12:21:00,50.8,47.4,29.92,SSE,147,1.0,5.0,88,0.00,,,0.00,WeatherCatV1.10B1784,2013-03-12 16:21:00,
2013-03-12 12:26:00,51.3,47.6,29.92,ESE,119,2.0,4.0,87,0.00,,,0.00,WeatherCatV1.10B1784,2013-03-12 16:26:00,
2013-03-12 12:31:00,51.9,48.2,29.92,SE,131,0.0,5.0,87,0.00,,,0.00,WeatherCatV1.10B1784,2013-03-12 16:31:00,
2013-03-12 12:36:00,52.2,48.1,29.92,SE,131,0.0,0.0,86,0.00,,,0.00,WeatherCatV1.10B1784,2013-03-12 16:36:00,
2013-03-12 12:41:00,52.3,47.9,29.92,South,177,0.0,6.0,85,0.00,,,0.00,WeatherCatV1.10B1784,2013-03-12 16:41:00,
2013-03-12 12:46:00,52.5,48.1,29.91,SE,131,0.0,2.0,85,0.00,,,0.00,WeatherCatV1.10B1784,2013-03-12 16:46:00,
2013-03-12 12:51:00,52.6,48.2,29.91,SE,131,4.0,4.0,85,0.00,,,0.00,WeatherCatV1.10B1784,2013-03-12 16:51:00,
2013-03-12 12:56:00,52.8,48.4,29.91,SE,130,2.0,4.0,85,0.00,,,0.00,WeatherCatV1.10B1784,2013-03-12 16:56:00,
2013-03-12 13:01:00,52.8,48.4,29.91,SE,132,0.0,3.0,85,0.00,,,0.00,WeatherCatV1.10B1784,2013-03-12 17:01:00,
2013-03-12 13:06:00,52.6,48.2,29.91,SE,146,1.0,5.0,85,0.00,,,0.00,WeatherCatV1.10B1784,2013-03-12 17:06:00,
2013-03-12 13:11:00,52.3,48.5,29.91,SE,141,3.0,5.0,87,0.00,,,0.00,WeatherCatV1.10B1784,2013-03-12 17:11:00,
2013-03-12 13:16:00,52.0,48.3,29.91,SE,136,0.0,4.0,87,0.00,,,0.00,WeatherCatV1.10B1784,2013-03-12 17:16:00,
2013-03-12 13:21:00,51.9,48.5,29.90,SE,136,1.0,1.0,88,0.00,,,0.00,WeatherCatV1.10B1784,2013-03-12 17:21:00,
2013-03-12 13:26:00,51.8,48.4,29.90,SE,124,0.0,5.0,88,0.00,,,0.00,WeatherCatV1.10B1784,2013-03-12 17:26:00,
2013-03-12 13:31:00,51.7,48.6,29.89,SE,124,0.0,4.0,89,0.00,,,0.00,WeatherCatV1.10B1784,2013-03-12 17:31:00,
2013-03-12 13:36:00,51.6,48.5,29.89,SE,124,0.0,0.0,89,0.00,,,0.00,WeatherCatV1.10B1784,2013-03-12 17:36:00,
2013-03-12 13:41:00,51.5,48.7,29.89,SE,124,0.0,2.0,90,0.00,,,0.00,WeatherCatV1.10B1784,2013-03-12 17:41:00,
2013-03-12 13:46:00,51.4,48.6,29.88,SE,125,0.0,1.0,90,0.00,,,0.00,WeatherCatV1.10B1784,2013-03-12 17:46:00,
2013-03-12 13:51:00,51.3,48.8,29.88,SSE,156,0.0,5.0,91,0.00,,,0.00,WeatherCatV1.10B1784,2013-03-12 17:51:00,
2013-03-12 13:56:00,51.3,48.8,29.88,SSE,156,2.0,2.0,91,0.00,,,0.00,WeatherCatV1.10B1784,2013-03-12 17:56:00,
2013-03-12 14:01:00,51.2,48.7,29.88,SSE,155,0.0,3.0,91,0.00,,,0.00,WeatherCatV1.10B1784,2013-03-12 18:01:00,
2013-03-12 14:06:00,51.2,48.7,29.87,SSE,155,0.0,0.0,91,0.00,,,0.00,WeatherCatV1.10B1784,2013-03-12 18:06:00,
2013-03-12 14:11:00,51.2,48.7,29.87,SSE,155,0.0,3.0,91,0.00,,,0.00,WeatherCatV1.10B1784,2013-03-12 18:11:00,
2013-03-12 14:16:00,51.3,48.8,29.86,SSE,155,0.0,2.0,91,0.00,,,0.00,WeatherCatV1.10B1784,2013-03-12 18:16:00,
2013-03-12 14:21:00,51.3,49.1,29.87,SSE,155,0.0,0.0,92,0.00,,,0.00,WeatherCatV1.10B1784,2013-03-12 18:21:00,
2013-03-12 14:26:00,51.3,48.8,29.86,SSE,155,1.0,2.0,91,0.00,,,0.00,WeatherCatV1.10B1784,2013-03-12 18:26:00,
2013-03-12 14:31:00,51.3,49.1,29.86,SSE,155,0.0,4.0,92,0.00,,,0.00,WeatherCatV1.10B1784,2013-03-12 18:31:00,
2013-03-12 14:37:00,51.3,49.1,29.86,SSE,155,0.0,0.0,92,0.00,,,0.00,WeatherCatV1.10B1784,2013-03-12 18:37:00,
2013-03-12 14:41:00,51.4,49.2,29.85,SSE,155,0.0,1.0,92,0.00,,,0.00,WeatherCatV1.10B1784,2013-03-12 18:41:00,
2013-03-12 14:46:00,51.2,48.7,29.85,SE,145,3.0,7.0,91,0.00,,,0.00,WeatherCatV1.10B1784,2013-03-12 18:46:00,
2013-03-12 14:51:00,51.2,49.0,29.85,South,177,0.0,1.0,92,0.00,,,0.00,WeatherCatV1.10B1784,2013-03-12 18:51:00,
2013-03-12 14:56:00,51.2,49.0,29.85,South,175,0.0,5.0,92,0.00,,,0.00,WeatherCatV1.10B1784,2013-03-12 18:56:00,
2013-03-12 15:01:00,51.3,49.1,29.84,SSE,167,6.0,10.0,92,0.00,,,0.00,WeatherCatV1.10B1784,2013-03-12 19:01:00,
2013-03-12 15:06:00,51.5,49.3,29.84,South,171,5.0,6.0,92,0.00,,,0.00,WeatherCatV1.10B1784,2013-03-12 19:06:00,
2013-03-12 15:11:00,51.5,49.3,29.84,SSE,164,9.0,11.0,92,0.00,,,0.00,WeatherCatV1.10B1784,2013-03-12 19:11:00,
2013-03-12 15:16:00,51.6,49.4,29.83,SE,140,4.0,6.0,92,0.00,,,0.00,WeatherCatV1.10B1784,2013-03-12 19:16:00,
2013-03-12 15:21:00,51.7,49.5,29.83,SSE,165,1.0,5.0,92,0.00,,,0.00,WeatherCatV1.10B1784,2013-03-12 19:21:00,
2013-03-12 15:26:00,51.7,49.5,29.83,SE,138,2.0,4.0,92,0.00,,,0.00,WeatherCatV1.10B1784,2013-03-12 19:26:00,
2013-03-12 15:31:00,51.8,49.5,29.82,SSE,161,1.0,5.0,92,0.00,,,0.00,WeatherCatV1.10B1784,2013-03-12 19:31:00,
2013-03-12 15:36:00,51.7,49.5,29.82,SE,138,0.0,7.0,92,0.00,,,0.00,WeatherCatV1.10B1784,2013-03-12 19:36:00,
2013-03-12 15:41:00,51.7,49.5,29.82,SSE,156,0.0,7.0,92,0.00,,,0.00,WeatherCatV1.10B1784,2013-03-12 19:41:00,
2013-03-12 15:46:00,51.7,49.7,29.81,SE,144,5.0,5.0,93,0.00,,,0.00,WeatherCatV1.10B1784,2013-03-12 19:46:00,
2013-03-12 15:51:00,51.6,49.4,29.81,SSE,148,1.0,7.0,92,0.00,,,0.00,WeatherCatV1.10B1784,2013-03-12 19:51:00,
2013-03-12 15:56:00,51.6,49.6,29.81,South,172,8.0,10.0,93,0.00,,,0.00,WeatherCatV1.10B1784,2013-03-12 19:56:00,
2013-03-12 16:01:00,51.5,49.5,29.81,SSE,165,4.0,4.0,93,0.00,,,0.00,WeatherCatV1.10B1784,2013-03-12 20:01:00,
2013-03-12 16:06:00,51.4,49.4,29.80,SSE,156,0.0,3.0,93,0.00,,,0.00,WeatherCatV1.10B1784,2013-03-12 20:06:00,
2013-03-12 16:11:00,51.4,49.4,29.80,SE,145,7.0,7.0,93,0.00,,,0.00,WeatherCatV1.10B1784,2013-03-12 20:11:00,
2013-03-12 16:16:00,51.3,49.3,29.80,ESE,120,1.0,4.0,93,0.00,,,0.00,WeatherCatV1.10B1784,2013-03-12 20:16:00,
2013-03-12 16:21:00,51.1,49.1,29.79,SSE,159,2.0,7.0,93,0.00,,,0.00,WeatherCatV1.10B1784,2013-03-12 20:21:00,
2013-03-12 16:26:00,51.0,49.3,29.79,SSE,149,1.0,4.0,94,0.00,,,0.00,WeatherCatV1.10B1784,2013-03-12 20:26:00,
2013-03-12 16:31:00,50.9,49.2,29.79,SSE,158,6.0,6.0,94,0.00,,,0.00,WeatherCatV1.10B1784,2013-03-12 20:31:00,
2013-03-12 16:36:00,50.8,49.1,29.79,SSE,154,4.0,6.0,94,0.00,,,0.00,WeatherCatV1.10B1784,2013-03-12 20:36:00,
2013-03-12 16:41:00,50.7,49.0,29.78,SSE,156,1.0,3.0,94,0.00,,,0.00,WeatherCatV1.10B1784,2013-03-12 20:41:00,
2013-03-12 16:46:00,50.6,48.9,29.78,SE,146,0.0,7.0,94,0.00,,,0.00,WeatherCatV1.10B1784,2013-03-12 20:46:00,
2013-03-12 16:51:00,50.5,48.8,29.78,SE,144,3.0,5.0,94,0.00,,,0.00,WeatherCatV1.10B1784,2013-03-12 20:51:00,
2013-03-12 16:57:00,50.4,48.7,29.77,SSE,149,5.0,9.0,94,0.00,,,0.00,WeatherCatV1.10B1784,2013-03-12 20:57:00,
2013-03-12 17:02:00,50.3,48.6,29.77,ESE,123,1.0,4.0,94,0.00,,,0.00,WeatherCatV1.10B1784,2013-03-12 21:02:00,
2013-03-12 17:07:00,50.2,48.5,29.77,SE,142,2.0,6.0,94,0.00,,,0.00,WeatherCatV1.10B1784,2013-03-12 21:07:00,
2013-03-12 17:12:00,50.1,48.4,29.76,SSE,148,3.0,6.0,94,0.00,,,0.00,WeatherCatV1.10B1784,2013-03-12 21:12:00,
2013-03-12 17:17:00,50.1,48.7,29.76,SE,132,2.0,4.0,95,0.00,,,0.00,WeatherCatV1.10B1784,2013-03-12 21:17:00,
2013-03-12 17:22:00,50.0,48.6,29.76,SSE,155,0.0,6.0,95,0.00,,,0.00,WeatherCatV1.10B1784,2013-03-12 21:22:00,
2013-03-12 17:27:00,49.9,48.2,29.75,SSE,150,4.0,4.0,94,0.00,,,0.00,WeatherCatV1.10B1784,2013-03-12 21:27:00,
2013-03-12 17:32:00,49.9,48.5,29.75,South,178,0.0,5.0,95,0.00,,,0.00,WeatherCatV1.10B1784,2013-03-12 21:32:00,
2013-03-12 17:37:00,49.9,48.5,29.75,SSE,148,5.0,7.0,95,0.00,,,0.00,WeatherCatV1.10B1784,2013-03-12 21:37:00,
2013-03-12 17:42:00,49.9,48.5,29.75,SE,142,0.0,6.0,95,0.00,,,0.00,WeatherCatV1.10B1784,2013-03-12 21:42:00,
2013-03-12 17:47:00,49.9,48.5,29.74,ESE,113,3.0,4.0,95,0.00,,,0.00,WeatherCatV1.10B1784,2013-03-12 21:47:00,
2013-03-12 17:52:00,50.0,48.6,29.74,SE,127,0.0,10.0,95,0.00,,,0.00,WeatherCatV1.10B1784,2013-03-12 21:52:00,
2013-03-12 17:57:00,50.1,48.7,29.74,SSE,163,6.0,7.0,95,0.00,,,0.00,WeatherCatV1.10B1784,2013-03-12 21:57:00,
2013-03-12 18:02:00,50.1,48.7,29.73,SE,129,0.0,6.0,95,0.00,,,0.00,WeatherCatV1.10B1784,2013-03-12 22:02:00,
2013-03-12 18:07:00,50.1,48.7,29.73,SE,140,7.0,9.0,95,0.00,,,0.00,WeatherCatV1.10B1784,2013-03-12 22:07:00,
2013-03-12 18:12:00,50.2,48.8,29.73,SSE,164,3.0,11.0,95,0.00,,,0.00,WeatherCatV1.10B1784,2013-03-12 22:12:00,
2013-03-12 18:17:00,50.2,48.8,29.73,SSE,163,0.0,11.0,95,0.00,,,0.00,WeatherCatV1.10B1784,2013-03-12 22:17:00,
2013-03-12 18:22:00,50.3,48.9,29.73,ESE,117,5.0,5.0,95,0.00,,,0.00,WeatherCatV1.10B1784,2013-03-12 22:22:00,
2013-03-12 18:27:00,50.3,48.9,29.73,SE,142,4.0,5.0,95,0.00,,,0.00,WeatherCatV1.10B1784,2013-03-12 22:27:00,
2013-03-12 18:32:00,50.4,49.0,29.72,SSE,150,3.0,7.0,95,0.00,,,0.00,WeatherCatV1.10B1784,2013-03-12 22:32:00,
2013-03-12 18:37:00,50.3,48.9,29.73,SSE,156,10.0,10.0,95,0.00,,,0.00,WeatherCatV1.10B1784,2013-03-12 22:37:00,
2013-03-12 18:42:00,50.3,48.9,29.72,SE,146,1.0,11.0,95,0.00,,,0.00,WeatherCatV1.10B1784,2013-03-12 22:42:00,
2013-03-12 18:47:00,50.2,48.8,29.72,SE,138,7.0,7.0,95,0.00,,,0.00,WeatherCatV1.10B1784,2013-03-12 22:47:00,
2013-03-12 18:52:00,50.2,48.8,29.71,ESE,121,1.0,11.0,95,0.00,,,0.00,WeatherCatV1.10B1784,2013-03-12 22:52:00,
2013-03-12 18:57:00,50.2,48.8,29.71,SE,143,5.0,8.0,95,0.00,,,0.00,WeatherCatV1.10B1784,2013-03-12 22:57:00,
2013-03-12 19:02:00,50.2,48.8,29.71,SE,137,2.0,4.0,95,0.00,,,0.00,WeatherCatV1.10B1784,2013-03-12 23:02:00,
2013-03-12 19:07:00,50.2,48.8,29.70,South,175,5.0,10.0,95,0.00,,,0.00,WeatherCatV1.10B1784,2013-03-12 23:07:00,
2013-03-12 19:12:00,50.1,48.7,29.70,ESE,113,4.0,12.0,95,0.00,,,0.00,WeatherCatV1.10B1784,2013-03-12 23:12:00,
2013-03-12 19:17:00,50.2,48.8,29.70,SSE,148,2.0,5.0,95,0.00,,,0.00,WeatherCatV1.10B1784,2013-03-12 23:17:00,
2013-03-12 19:22:00,50.1,48.7,29.69,SSE,159,2.0,7.0,95,0.00,,,0.00,WeatherCatV1.10B1784,2013-03-12 23:22:00,
2013-03-12 19:27:00,50.1,48.7,29.69,SSE,168,7.0,10.0,95,0.00,,,0.00,WeatherCatV1.10B1784,2013-03-12 23:27:00,
2013-03-12 19:32:00,50.1,48.7,29.69,SSE,156,2.0,6.0,95,0.00,,,0.00,WeatherCatV1.10B1784,2013-03-12 23:32:00,
2013-03-12 19:37:00,50.1,48.7,29.69,South,177,9.0,9.0,95,0.00,,,0.00,WeatherCatV1.10B1784,2013-03-12 23:37:00,
2013-03-12 19:42:00,50.2,48.8,29.69,SSW,208,8.0,11.0,95,0.00,,,0.00,WeatherCatV1.10B1784,2013-03-12 23:42:00,
2013-03-12 19:47:00,50.1,48.7,29.69,SE,137,1.0,8.0,95,0.00,,,0.00,WeatherCatV1.10B1784,2013-03-12 23:47:00,
2013-03-12 19:52:00,50.1,48.7,29.68,SSE,164,7.0,11.0,95,0.00,,,0.00,WeatherCatV1.10B1784,2013-03-12 23:52:00,
2013-03-12 19:57:00,50.3,49.2,29.68,SSE,161,4.0,9.0,96,0.00,,,0.00,WeatherCatV1.10B1784,2013-03-12 23:57:00,
2013-03-12 20:02:00,50.2,48.8,29.68,SSE,160,0.0,10.0,95,0.00,,,0.00,WeatherCatV1.10B1784,2013-03-13 00:02:00,
2013-03-12 20:07:00,50.2,49.1,29.68,SE,137,3.0,5.0,96,0.00,,,0.00,WeatherCatV1.10B1784,2013-03-13 00:07:00,
2013-03-12 20:12:00,50.1,49.0,29.68,SE,141,5.0,6.0,96,0.00,,,0.00,WeatherCatV1.10B1784,2013-03-13 00:12:00,
2013-03-12 20:17:00,50.1,48.7,29.68,SSE,152,4.0,6.0,95,0.00,,,0.00,WeatherCatV1.10B1784,2013-03-13 00:17:00,
2013-03-12 20:22:00,50.1,48.7,29.68,SE,138,2.0,8.0,95,0.00,,,0.00,WeatherCatV1.10B1784,2013-03-13 00:22:00,
2013-03-12 20:27:00,50.2,48.8,29.68,SE,146,2.0,5.0,95,0.00,,,0.00,WeatherCatV1.10B1784,2013-03-13 00:27:00,
2013-03-12 20:32:00,50.1,48.7,29.68,South,179,0.0,4.0,95,0.00,,,0.00,WeatherCatV1.10B1784,2013-03-13 00:32:00,
2013-03-12 20:37:00,50.1,48.7,29.68,WSW,238,1.0,5.0,95,0.00,,,0.00,WeatherCatV1.10B1784,2013-03-13 00:37:00,
2013-03-12 20:42:00,50.3,48.9,29.68,WSW,240,2.0,6.0,95,0.00,,,0.00,WeatherCatV1.10B1784,2013-03-13 00:42:00,
2013-03-12 20:47:00,50.4,49.3,29.68,South,171,1.0,10.0,96,0.00,,,0.00,WeatherCatV1.10B1784,2013-03-13 00:47:00,
2013-03-12 20:52:00,50.5,49.4,29.68,WSW,239,3.0,7.0,96,0.00,,,0.00,WeatherCatV1.10B1784,2013-03-13 00:52:00,
2013-03-12 20:57:00,50.6,49.5,29.68,South,171,0.0,10.0,96,0.00,,,0.00,WeatherCatV1.10B1784,2013-03-13 00:57:00,
2013-03-12 21:02:00,50.6,49.5,29.69,SSE,160,10.0,10.0,96,0.00,,,0.00,WeatherCatV1.10B1784,2013-03-13 01:02:00,
2013-03-12 21:07:00,50.8,49.7,29.69,SSE,162,0.0,6.0,96,0.00,,,0.00,WeatherCatV1.10B1784,2013-03-13 01:07:00,
2013-03-12 21:12:00,50.7,49.6,29.68,WSW,244,5.0,5.0,96,0.00,,,0.00,WeatherCatV1.10B1784,2013-03-13 01:12:00,
2013-03-12 21:17:00,50.6,49.5,29.68,South,184,4.0,10.0,96,0.00,,,0.00,WeatherCatV1.10B1784,2013-03-13 01:17:00,
2013-03-12 21:22:00,50.5,49.4,29.68,SE,146,3.0,7.0,96,0.00,,,0.00,WeatherCatV1.10B1784,2013-03-13 01:22:00,
2013-03-12 21:27:00,50.6,49.5,29.68,SW,231,0.0,3.0,96,0.00,,,0.00,WeatherCatV1.10B1784,2013-03-13 01:27:00,
2013-03-12 21:32:00,50.5,49.4,29.68,SW,227,2.0,2.0,96,0.00,,,0.00,WeatherCatV1.10B1784,2013-03-13 01:32:00,
2013-03-12 21:37:00,50.4,49.3,29.68,SSE,168,2.0,6.0,96,0.00,,,0.00,WeatherCatV1.10B1784,2013-03-13 01:37:00,
2013-03-12 21:42:00,50.2,49.1,29.68,SSW,206,0.0,7.0,96,0.00,,,0.00,WeatherCatV1.10B1784,2013-03-13 01:42:00,
2013-03-12 21:47:00,50.4,49.3,29.68,SW,236,0.0,4.0,96,0.00,,,0.00,WeatherCatV1.10B1784,2013-03-13 01:47:00,
2013-03-12 21:52:00,50.3,49.2,29.68,WSW,248,5.0,6.0,96,0.00,,,0.00,WeatherCatV1.10B1784,2013-03-13 01:52:00,
2013-03-12 21:57:00,50.3,49.2,29.68,SW,234,0.0,3.0,96,0.00,,,0.00,WeatherCatV1.10B1784,2013-03-13 01:57:00,
2013-03-12 22:02:00,50.1,48.7,29.69,SSE,150,0.0,6.0,95,0.00,,,0.00,WeatherCatV1.10B1784,2013-03-13 02:02:00,
2013-03-12 22:07:00,50.2,49.1,29.69,SW,229,0.0,5.0,96,0.00,,,0.00,WeatherCatV1.10B1784,2013-03-13 02:07:00,
2013-03-12 22:12:00,50.3,49.2,29.69,South,183,0.0,3.0,96,0.00,,,0.00,WeatherCatV1.10B1784,2013-03-13 02:12:00,
2013-03-12 22:17:00,50.1,48.7,29.69,South,180,0.0,1.0,95,0.00,,,0.00,WeatherCatV1.10B1784,2013-03-13 02:17:00,
2013-03-12 22:22:00,50.0,48.6,29.69,SSE,161,0.0,6.0,95,0.00,,,0.00,WeatherCatV1.10B1784,2013-03-13 02:22:00,
2013-03-12 22:27:00,50.0,48.6,29.69,SSE,163,0.0,1.0,95,0.00,,,0.00,WeatherCatV1.10B1784,2013-03-13 02:27:00,
2013-03-12 22:32:00,49.9,48.5,29.69,South,187,4.0,4.0,95,0.00,,,0.00,WeatherCatV1.10B1784,2013-03-13 02:32:00,
2013-03-12 22:37:00,50.1,48.7,29.69,SSW,199,0.0,4.0,95,0.00,,,0.00,WeatherCatV1.10B1784,2013-03-13 02:37:00,
2013-03-12 22:42:00,50.1,48.7,29.69,SSW,199,2.0,2.0,95,0.00,,,0.00,WeatherCatV1.10B1784,2013-03-13 02:42:00,
2013-03-12 22:47:00,49.9,48.5,29.70,SSW,199,1.0,1.0,95,0.00,,,0.00,WeatherCatV1.10B1784,2013-03-13 02:47:00,
2013-03-12 22:52:00,49.9,48.5,29.70,SSW,199,0.0,1.0,95,0.00,,,0.00,WeatherCatV1.10B1784,2013-03-13 02:52:00,
2013-03-12 22:57:00,49.6,48.2,29.70,SSW,199,0.0,1.0,95,0.00,,,0.00,WeatherCatV1.10B1784,2013-03-13 02:57:00,
2013-03-12 23:02:00,49.7,48.6,29.70,SSW,199,2.0,2.0,96,0.00,,,0.00,WeatherCatV1.10B1784,2013-03-13 03:02:00,
2013-03-12 23:07:00,49.7,48.6,29.70,WSW,252,0.0,3.0,96,0.00,,,0.00,WeatherCatV1.10B1784,2013-03-13 03:07:00,
2013-03-12 23:12:00,49.1,47.7,29.70,WNW,292,3.0,7.0,95,0.00,,,0.00,WeatherCatV1.10B1784,2013-03-13 03:12:00,
2013-03-12 23:17:00,48.7,47.3,29.70,WNW,287,4.0,5.0,95,0.00,,,0.00,WeatherCatV1.10B1784,2013-03-13 03:17:00,
2013-03-12 23:22:00,48.5,46.9,29.70,WNW,287,2.0,4.0,94,0.00,,,0.00,WeatherCatV1.10B1784,2013-03-13 03:22:00,
2013-03-12 23:27:00,47.9,46.0,29.70,WNW,287,1.0,4.0,93,0.00,,,0.00,WeatherCatV1.10B1784,2013-03-13 03:27:00,
2013-03-12 23:32:00,47.2,45.0,29.70,WNW,286,2.0,11.0,92,0.00,,,0.00,WeatherCatV1.10B1784,2013-03-13 03:32:00,
2013-03-12 23:37:00,46.7,44.2,29.70,WNW,299,0.0,0.0,91,0.00,,,0.00,WeatherCatV1.10B1784,2013-03-13 03:37:00,
2013-03-12 23:42:00,46.3,43.8,29.70,WNW,302,3.0,3.0,91,0.00,,,0.00,WeatherCatV1.10B1784,2013-03-13 03:42:00,
2013-03-12 23:47:00,45.8,43.0,29.71,WSW,257,0.0,7.0,90,0.00,,,0.00,WeatherCatV1.10B1784,2013-03-13 03:47:00,
2013-03-12 23:52:00,45.5,42.7,29.71,WSW,257,0.0,2.0,90,0.00,,,0.00,WeatherCatV1.10B1784,2013-03-13 03:52:00,
2013-03-12 23:57:00,45.2,42.4,29.71,WSW,249,0.0,5.0,90,0.00,,,0.00,WeatherCatV1.10B1784,2013-03-13 03:57:00,